Weather History for DeKalb, IL

Change the Weather History Date:

Tuesday, March 5, 2013

  Actual Average (KARR) Record (KARR)
Temperature  
Mean Temperature 28 °F 32 °F  
Max Temperature 30 °F 42 °F 69 °F (2000)
Min Temperature 25 °F 23 °F -1 °F (2002)
Degree Days  
Heating Degree Days 38 33  
Month to date heating degree days 169  
Since 1 July heating degree days 5307  
Cooling Degree Days 0 0  
Month to date cooling degree days 0  
Year to date cooling degree days 0  
Moisture  
Dew Point 26 °F    
Average Humidity 88    
Maximum Humidity 92    
Minimum Humidity 74    
Precipitation  
Precipitation 0.16 in 0.07 in 0.46 in (2004)
Month to date precipitation 0.34  
Year to date precipitation 3.43  
Sea Level Pressure  
Sea Level Pressure 29.88 in    
Wind  
Wind Speed 11 mph (NE)    
Max Wind Speed 18 mph    
Max Gust Speed 26 mph    
Visibility 3 miles    
Events Snow    
T = Trace of Precipitation, MM = Missing Value Source: NWS Daily Summary

Daily Weather History Graph

Daily Weather History Graph

Search for Another Location

Airport:

Trip Planner

Search our weather history database for the weather conditions in past years. The results will help you decide how hot, cold, wet, or windy it might be!

Date:

Astronomy

Mar. 05, 2013 Rise Set
Actual Time 6:22 AM CST 5:50 PM CST
Civil Twilight 5:55 AM CST 6:18 PM CST
Nautical Twilight 5:22 AM CST 6:50 PM CST
Astronomical Twilight 4:50 AM CST 7:22 PM CST
Moon 1:39 AM CST (3/5) 11:24 AM CST (3/5)
Length of Visible Light 12h 22m
Length of Day
11h 27m
Last Quarter, 40% of the Moon is Illuminated
Mar 5
Last Quarter
Mar 11
New
Mar 19
First Quarter
Mar 27
Full
Apr 2
Last Quarter

Hourly Weather History & Observations

Time (CST) Temp. Windchill Dew Point Humidity Pressure Visibility Wind Dir Wind Speed Gust Speed Precip Events Conditions
12:15 AM 30.6 °F 22.4 °F 23.2 °F 74% 29.96 in 10.0 mi East 9.2 mph - N/A   Overcast
12:35 AM 30.6 °F 22.4 °F 23.5 °F 75% 29.96 in 10.0 mi East 9.2 mph - N/A   Overcast
12:55 AM 30.6 °F 21.8 °F 23.7 °F 76% 29.95 in 10.0 mi East 10.4 mph - N/A   Overcast
1:15 AM 30.6 °F 21.8 °F 23.7 °F 76% 29.95 in 10.0 mi East 10.4 mph - N/A   Overcast
1:35 AM 30.6 °F 21.8 °F 24.1 °F 77% 29.94 in 10.0 mi East 10.4 mph - N/A   Overcast
1:55 AM 30.6 °F 20.7 °F 24.3 °F 77% 29.93 in 10.0 mi East 12.7 mph - N/A   Overcast
2:15 AM 30.6 °F 20.7 °F 24.6 °F 79% 29.92 in 10.0 mi ENE 12.7 mph - N/A   Overcast
2:35 AM 30.4 °F 21.0 °F 25.0 °F 80% 29.92 in 10.0 mi East 11.5 mph - N/A   Overcast
2:55 AM 30.4 °F 20.5 °F 25.3 °F 82% 29.91 in 10.0 mi ENE 12.7 mph - N/A   Overcast
3:15 AM 30.2 °F 20.2 °F 25.7 °F 83% 29.89 in 10.0 mi ENE 12.7 mph - N/A   Overcast
3:35 AM 30.2 °F 20.2 °F 26.1 °F 85% 29.89 in 10.0 mi ENE 12.7 mph - N/A   Overcast
3:55 AM 30.2 °F 20.8 °F 26.2 °F 85% 29.89 in 10.0 mi ENE 11.5 mph - N/A   Overcast
4:15 AM 30.2 °F 20.2 °F 26.2 °F 85% 29.88 in 7.0 mi ENE 12.7 mph - N/A   Overcast
4:35 AM 30.2 °F 20.8 °F 26.6 °F 86% 29.88 in 5.0 mi ENE 11.5 mph - N/A   Overcast
4:55 AM 30.2 °F 20.8 °F 26.6 °F 86% 29.87 in 5.0 mi East 11.5 mph - N/A Snow Light Snow
5:15 AM 30.2 °F 21.3 °F 26.6 °F 86% 29.88 in 2.5 mi East 10.4 mph - N/A   Overcast
5:35 AM 30.2 °F 21.3 °F 27.0 °F 88% 29.87 in 2.5 mi East 10.4 mph - N/A   Overcast
5:55 AM 29.7 °F 19.6 °F 26.6 °F 88% 29.86 in 1.5 mi ENE 12.7 mph - N/A Snow Light Snow
6:15 AM 29.7 °F 21.3 °F 27.0 °F 90% 29.87 in 1.8 mi East 9.2 mph - N/A   Overcast
6:35 AM 30.2 °F 21.3 °F 26.6 °F 86% 29.86 in 1.0 mi ENE 10.4 mph - N/A Snow Light Snow
6:55 AM 30.2 °F 21.9 °F 26.6 °F 86% 29.87 in 0.8 mi ENE 9.2 mph - N/A Snow Light Snow
7:15 AM 29.3 °F 22.3 °F 26.6 °F 90% 29.87 in 0.5 mi East 6.9 mph - N/A Snow Light Snow
7:35 AM 29.3 °F 23.2 °F 26.8 °F 90% 29.88 in 0.5 mi East 5.8 mph - 0.02 in Snow Snow
7:55 AM 29.3 °F 22.3 °F 27.0 °F 91% 29.88 in 0.2 mi ENE 6.9 mph - 0.04 in Snow Heavy Snow
8:15 AM 29.3 °F 21.5 °F 27.0 °F 91% 29.87 in 0.2 mi ENE 8.1 mph - 0.01 in Snow Heavy Snow
8:35 AM 29.3 °F 20.8 °F 27.1 °F 92% 29.87 in 0.2 mi ENE 9.2 mph - 0.02 in Snow Snow
8:55 AM 29.7 °F 21.3 °F 27.3 °F 91% 29.86 in 0.5 mi ENE 9.2 mph - 0.02 in Snow Snow
9:15 AM 29.7 °F 20.1 °F 27.3 °F 91% 29.84 in 0.5 mi ENE 11.5 mph - N/A Snow Snow
9:35 AM 29.7 °F 21.3 °F 27.3 °F 91% 29.84 in 1.0 mi ENE 9.2 mph - N/A Snow Light Snow
9:55 AM 30.2 °F 21.9 °F 27.9 °F 91% 29.84 in 0.5 mi ENE 9.2 mph - N/A Snow Snow
10:15 AM 30.2 °F 23.4 °F 27.9 °F 91% 29.83 in 0.5 mi ENE 6.9 mph - N/A Snow Snow
10:35 AM 30.2 °F 21.9 °F 28.0 °F 92% 29.82 in 0.5 mi ENE 9.2 mph - 0.01 in Snow Snow
10:55 AM 30.2 °F 21.9 °F 27.9 °F 91% 29.82 in 0.5 mi ENE 9.2 mph - 0.02 in Snow Light Snow
11:15 AM 30.2 °F 23.4 °F 28.0 °F 92% 29.82 in 0.5 mi ENE 6.9 mph - 0.01 in Snow Snow
11:35 AM 30.2 °F 22.6 °F 28.0 °F 92% 29.82 in 0.8 mi NE 8.1 mph - 0.01 in Snow Light Snow
11:55 AM 30.2 °F 23.4 °F 28.0 °F 92% 29.82 in 0.5 mi NE 6.9 mph - 0.03 in Snow Light Snow
12:15 PM 30.2 °F 22.6 °F 28.0 °F 92% 29.81 in 0.5 mi NE 8.1 mph - 0.01 in Snow Snow
12:35 PM 30.2 °F 21.9 °F 28.0 °F 92% 29.81 in 0.5 mi ENE 9.2 mph - 0.02 in Snow Light Snow
12:55 PM 30.2 °F 20.8 °F 28.0 °F 92% 29.80 in 0.8 mi ENE 11.5 mph - 0.02 in Snow Light Snow
1:15 PM 30.2 °F 21.9 °F 27.9 °F 91% 29.79 in 0.8 mi NE 9.2 mph - N/A Snow Light Snow
1:35 PM 30.2 °F 21.3 °F 27.9 °F 91% 29.79 in 1.0 mi NE 10.4 mph - 0.01 in Snow Light Snow
1:55 PM 30.2 °F 21.3 °F 27.7 °F 90% 29.79 in 1.0 mi NE 10.4 mph - 0.01 in Snow Light Snow
2:15 PM 30.2 °F 23.4 °F 27.9 °F 91% 29.79 in 0.5 mi ENE 6.9 mph - N/A Snow Snow
2:35 PM 30.2 °F 21.3 °F 27.7 °F 90% 29.79 in 0.8 mi ENE 10.4 mph - 0.01 in Snow Light Snow
2:55 PM 29.5 °F 19.3 °F 27.3 °F 92% 29.80 in 1.8 mi NE 12.7 mph - 0.01 in Snow Light Snow
3:15 PM 29.1 °F 18.9 °F 26.6 °F 90% 29.81 in 1.0 mi NE 12.7 mph - N/A Snow Light Snow
3:35 PM 29.1 °F 20.0 °F 26.6 °F 90% 29.81 in 1.0 mi NNE 10.4 mph - N/A   Overcast
3:55 PM 28.9 °F 19.8 °F 26.6 °F 91% 29.82 in 1.0 mi NNE 10.4 mph - 0.01 in Snow Light Snow
4:15 PM 28.4 °F 18.0 °F 26.1 °F 91% 29.82 in 1.0 mi NNE 12.7 mph - N/A Snow Light Snow
4:55 PM 28.0 °F 17.5 °F 25.7 °F 91% 29.84 in 0.5 mi North 12.7 mph - N/A Snow Light Snow
5:15 PM 27.9 °F 15.9 °F 25.5 °F 91% 29.85 in 0.8 mi NNE 16.1 mph - N/A   Overcast
5:35 PM 27.9 °F 17.8 °F 25.5 °F 91% 29.86 in 0.8 mi North 11.5 mph - N/A   Overcast
5:55 PM 27.3 °F 15.6 °F 25.0 °F 91% 29.87 in 1.0 mi North 15.0 mph - N/A Snow Light Snow
6:15 PM 26.8 °F 13.7 °F 24.3 °F 90% 29.88 in 2.5 mi North 18.4 mph - N/A Snow Light Snow
6:35 PM 26.6 °F 15.7 °F 24.1 °F 90% 29.89 in 3.0 mi North 12.7 mph - N/A Snow Light Snow
6:55 PM 26.6 °F 15.2 °F 24.1 °F 90% 29.90 in 2.5 mi NNW 13.8 mph - N/A Snow Light Snow
7:15 PM 26.6 °F 14.3 °F 23.9 °F 90% 29.90 in 1.5 mi NNW 16.1 mph - N/A Snow Light Snow
7:35 PM 26.6 °F 14.3 °F 23.9 °F 90% 29.91 in 1.5 mi NNW 16.1 mph - N/A Snow Light Snow
7:55 PM 25.7 °F 12.7 °F 23.4 °F 91% 29.92 in 1.8 mi NNW 17.3 mph 24.2 mph N/A Snow Light Snow
8:15 PM 25.9 °F 12.5 °F 23.4 °F 90% 29.92 in 2.0 mi NNW 18.4 mph 24.2 mph N/A Snow Light Snow
8:35 PM 26.1 °F 12.7 °F 23.4 °F 90% 29.93 in 2.0 mi NNW 18.4 mph 25.3 mph N/A Snow Light Snow
8:55 PM 26.1 °F 13.1 °F 23.4 °F 90% 29.94 in 1.8 mi NNW 17.3 mph 26.5 mph N/A Snow Light Snow
9:15 PM 25.7 °F 13.1 °F 23.0 °F 89% 29.95 in 1.2 mi NNW 16.1 mph 24.2 mph N/A Snow Light Snow
9:35 PM 25.3 °F 11.8 °F 22.6 °F 89% 29.96 in 1.5 mi NNW 18.4 mph 25.3 mph N/A Snow Light Snow
9:55 PM 25.3 °F 11.8 °F 22.6 °F 89% 29.97 in 2.0 mi NNW 18.4 mph - N/A Snow Light Snow
10:15 PM 25.3 °F 11.8 °F 22.6 °F 89% 29.98 in 2.0 mi NNW 18.4 mph 26.5 mph N/A Snow Light Snow
10:35 PM 25.3 °F 13.1 °F 22.6 °F 89% 29.99 in 2.5 mi NNW 15.0 mph - N/A Snow Light Snow
10:55 PM 25.3 °F 12.6 °F 22.6 °F 89% 29.99 in 3.0 mi NNW 16.1 mph - N/A Snow Light Snow
11:15 PM 25.5 °F 12.0 °F 22.1 °F 87% 30.00 in 10.0 mi NNW 18.4 mph 24.2 mph N/A   Overcast
11:35 PM 25.3 °F 12.6 °F 21.9 °F 87% 30.00 in 10.0 mi NNW 16.1 mph 21.9 mph N/A   Overcast
11:55 PM 25.3 °F 12.2 °F 21.9 °F 87% 30.01 in 10.0 mi NNW 17.3 mph 25.3 mph N/A   Overcast